STARLINK-35750, 66209

Orbit data source: Space-Track

STARLINK-35750, 66209 is a payload satellite owned by SpaceX/Seattle (US) in LEO that was launched on Tue, 28 Oct 2025 UTC via an FALCON 9 launch vehicle from the Air Force Western Test Range (AFWTR). Payload-class satellites include a variety of spacecraft equipped with specific instruments for various scientific and technological missions. These include communications satellites like Starlink; space stations such as the ISS; scientific satellites like the Hubble; Earth observation satellites from companies like Planet Labs, Umbra, and HawkEye 360; GPS; miniature CubeSats for education and research; and military/defense satellites.

Loading next visibility...
Identifier
66209, 2025-244D
Orbit
LEO
Country
Flag of USUS
Related business
Manufacturer
SpaceX/Seattle
Mission
Operational Commercial Communications
Bus & Motor
STARLINK V2MO, Unknown motor
Mass
575 kg wet, ~530 kg dry
Launch date (UTC)
2025-10-28 (8 months ago)
Launch vehicle
FALCON 9
Launch site
Air Force Western Test Range (AFWTR)
Object type
Payload
Rocket body
Debris
Shape & HBR
Box + 2 Pan, 17.7 m
Radar Cross Section
36.964 m², Large (>1 m²)

Expand to show TLE details & history
Last TLE update: 1 day ago

TLE from 1 day ago
0 STARLINK-35750
1 66209U 25244D   26170.86355458  .00029214  00000-0  87179-3 0  9993
2 66209  53.1611 114.5620 0000978  89.4889 270.6226 15.34421749 37310
Epoch: 2026-06-19T20:43Z
TLE epoch observation values (Epoch: 2026-06-19T20:43:31.115Z)
Latitude
-0.00001°
Longitude
-104.40408°
Altitude
463.533 km
Speed
7.636 km/s
True Right ascension
07h 38m 14s
True Declination
0° 00' 00"
Sunlit
Object was in daylight at epoch
Visualization orbit readout
Latitude
Unknown
Longitude
Unknown
Altitude
Unknown
Speed
Unknown
Apparent Right ascension
Unknown
Apparent Declination
Unknown
Sunlit
N/A
Visualization observer readout
Local Sidereal Time
08:33:35
Azimuth
Unknown
Elevation
Unknown
Doppler factor
Unknown
Orbital elements
Apogee altitude
463.564 km
Perigee altitude
462.226 km
Semi-major axis
6,841.032 km
Eccentricity
0.0001
Inclination
53.1611°
RAAN
114.562°
Arg. of periapsis
89.4889°
True anomaly
270.61139°
Mean anomaly
270.6226°
Eccentric anomaly
270.617°
Mean motion
3.83584 °/min
Orbital period
93.85 mins
BSTAR
0.00087179
Loading maneuver chart data...
Computing Atmospheric mass density...
Loading historical data...
Loading historical data...
Loading historical data...
Loading historical data...
Loading historical data...
Loading historical data...
Loading historical data...

Documentation

Showing up to 5 results
|